カタログに戻る

STARLINK-5781

運用中通信VLEO
NORAD 56030·PAYLOAD·🇺🇸 United States

打ち上げ Mar 24, 2023 から Cape Canaveral Space Force Station

Loading…

次のパス (今後24時間)

TLE

最新Source: CelesTrak SupGP

元期: Sep 14, 2026, 21:20 UTC

1 56030C 23042AW  26257.88937500  .00057451  00000+0  20808-2 0  2575
2 56030  43.0045  56.6816 0001869 275.6090  10.4832 15.27550911    12

AllMySatでSTARLINK-5781をリアルタイム追跡

Download on the App Store